Balance de Ath

Balances > Ath > Ce mois-ci

Ce mois-ci

Voir les données pour : cette semaine | hier

Graphiques

  Température (°C)   Humidité (%)   Poids (kg)   Pluie (l/m²)



Journal

Désolé, aucune information concernant cette période n'est disponible.

Tableau

Date Température (°C)Humidité (%)Pluie (l/m²)Poids (kg)
minmaxmoyminmaxmoypoidsvariation
16/06/1912,324,219,3638678,6136,40,0
17/06/1912,627,221,3548671,7037,1+0,7
18/06/1914,628,322,8618674,2038,0+0,9
19/06/1917,826,521,0768684,0137,8-0,2
20/06/1916,022,119,0638775,4037,80,0
21/06/1911,423,218,4568769,8038,0+0,2
22/06/1912,026,520,5568669,4039,2+1,2
23/06/1915,732,124,7598673,8041,8+2,6
24/06/1918,133,526,4558575,3043,7+1,9
25/06/1920,733,427,5638576,0044,8+1,1
26/06/1918,627,622,8698578,6044,5-0,3
27/06/1916,227,722,6498567,8044,7+0,2
28/06/1914,029,423,0558567,2045,7+1,0
29/06/1916,335,327,0458164,5047,2+1,5
30/06/1917,629,323,7548468,6046,9-0,3
01/07/1915,127,921,8498564,1046,8-0,1
02/07/1912,126,620,4488564,7047,1+0,3
03/07/1913,823,719,3508461,5047,2+0,1
04/07/1911,526,220,3408357,7047,8+0,6
05/07/1914,330,622,8458461,2048,7+0,9
06/07/1914,330,922,6418465,0049,4+0,7
07/07/1916,321,118,5588469,5049,0-0,4
08/07/1910,722,117,6468563,3048,9-0,1
09/07/1910,226,119,4428559,5049,2+0,3
10/07/1912,326,220,7518468,4049,9+0,7
11/07/1916,726,021,9498466,7050,1+0,2
12/07/1915,124,220,7578472,6050,0-0,1
13/07/1916,122,719,3678476,3050,1+0,1
14/07/1915,519,717,7698476,1049,7-0,4
15/07/1911,619,616,8638575,6049,6-0,1